TimeEST,TemperatureF,Dew PointF,Humidity,Sea Level PressureIn,VisibilityMPH,Wind Direction,Wind SpeedMPH,Gust SpeedMPH,PrecipitationIn,Events,Conditions,WindDirDegrees,DateUTC
12:53 AM,72.0,71.1,97,30.15,7.0,East,6.9,-,N/A,,Clear,80,2013-01-09 05:53:00
1:53 AM,72.0,71.1,97,30.16,6.0,Calm,Calm,-,N/A,,Mostly Cloudy,0,2013-01-09 06:53:00
2:53 AM,71.1,71.1,100,30.16,6.0,NE,5.8,-,N/A,,Overcast,50,2013-01-09 07:53:00
3:53 AM,71.1,71.1,100,30.16,7.0,ENE,6.9,-,N/A,,Overcast,70,2013-01-09 08:53:00
4:53 AM,71.1,70.0,96,30.16,7.0,East,4.6,-,N/A,,Partly Cloudy,80,2013-01-09 09:53:00
5:53 AM,71.1,70.0,96,30.17,7.0,East,6.9,-,N/A,,Partly Cloudy,90,2013-01-09 10:53:00
6:53 AM,71.1,70.0,96,30.18,8.0,East,6.9,-,N/A,,Clear,100,2013-01-09 11:53:00
7:53 AM,71.1,71.1,100,30.20,6.0,East,6.9,-,N/A,,Clear,90,2013-01-09 12:53:00
8:53 AM,75.0,71.1,87,30.23,8.0,ESE,12.7,18.4,N/A,,Clear,110,2013-01-09 13:53:00
9:53 AM,78.1,70.0,76,30.24,9.0,ESE,13.8,-,N/A,,Partly Cloudy,110,2013-01-09 14:53:00
10:53 AM,82.0,70.0,67,30.23,10.0,SE,11.5,24.2,N/A,,Scattered Clouds,130,2013-01-09 15:53:00
11:53 AM,82.0,66.9,60,30.21,10.0,ESE,15.0,-,N/A,,Mostly Cloudy,110,2013-01-09 16:53:00
1:53 PM,82.9,66.9,58,30.17,10.0,ESE,9.2,-,N/A,,Mostly Cloudy,110,2013-01-09 18:53:00
2:53 PM,82.0,69.1,65,30.17,8.0,ESE,12.7,-,0.00,Rain,Light Rain,110,2013-01-09 19:53:00
3:53 PM,82.0,64.9,56,30.17,10.0,ESE,10.4,-,0.00,,Mostly Cloudy,110,2013-01-09 20:53:00
4:53 PM,82.0,64.9,56,30.19,10.0,East,10.4,-,N/A,,Scattered Clouds,100,2013-01-09 21:53:00
5:53 PM,80.1,64.9,60,30.19,10.0,East,5.8,-,N/A,,Clear,100,2013-01-09 22:53:00
6:53 PM,77.0,66.0,69,30.21,10.0,East,8.1,-,N/A,,Clear,90,2013-01-09 23:53:00
7:53 PM,75.9,66.0,71,30.22,10.0,East,9.2,-,N/A,,Clear,90,2013-01-10 00:53:00
8:53 PM,73.0,66.0,79,30.23,10.0,East,6.9,-,N/A,,Clear,80,2013-01-10 01:53:00
9:53 PM,73.0,68.0,84,30.24,10.0,East,9.2,-,N/A,,Partly Cloudy,90,2013-01-10 02:53:00
10:53 PM,73.9,70.0,87,30.25,9.0,East,11.5,-,N/A,,Overcast,90,2013-01-10 03:53:00
11:53 PM,73.9,70.0,87,30.25,9.0,East,9.2,-,N/A,,Overcast,80,2013-01-10 04:53:00